Chicago Midway, IL

12:44 AM CDT on July 28, 2017 (GMT -0500)
Chicago-Midway

Weather History for KMDW - January, 2012

Change the Weather History Date:

Friday, January 6, 2012

  Actual Average Record
Temperature  
Mean Temperature 48 °F 25 °F  
Max Temperature 54 °F 32 °F 60 °F (2008)
Min Temperature 42 °F 19 °F -15 °F (2014)
Degree Days  
Heating Degree Days 17 40  
Month to date heating degree days 239  
Since 1 July heating degree days 2490  
Cooling Degree Days 0 0  
Month to date cooling degree days 0  
Year to date cooling degree days 0  
Moisture  
Dew Point 32 °F    
Average Humidity 57    
Maximum Humidity 66    
Minimum Humidity 47    
Precipitation  
Precipitation 0.00 in 0.07 in 0.75 in (1962)
Month to date precipitation 0.46  
Year to date precipitation 0.46  
Sea Level Pressure  
Sea Level Pressure 29.73 in    
Wind  
Wind Speed 10 mph (WSW)    
Max Wind Speed 18 mph    
Max Gust Speed 24 mph    
Visibility 10 miles    
Events      
T = Trace of Precipitation, MM = Missing Value Source: NWS Daily Summary

Daily Weather History Graph

Daily Weather History Graph

Search for Another Location

Airport or City:

Trip Planner

Search our weather history database for the weather conditions in past years. The results will help you decide how hot, cold, wet, or windy it might be!

Date:

Astronomy

Jan. 06, 2012 Rise Set
Actual Time 7:18 AM CST 4:35 PM CST
Civil Twilight 6:47 AM CST 5:06 PM CST
Nautical Twilight 6:12 AM CST 5:41 PM CST
Astronomical Twilight 5:38 AM CST 6:14 PM CST
Moon 2:25 PM CST (1/6) 4:58 AM CST (1/6)
Length of Visible Light 10h 19m
Length of Day
9h 16m
Waxing Gibbous, 93% of the Moon is Illuminated
Jan 6
Waxing Gibbous
Jan 9
Full
Jan 16
Last Quarter
Jan 23
New
Jan 30
First Quarter

Hourly Weather History & Observations

Time (CST) Temp. Windchill Dew Point Humidity Pressure Visibility Wind Dir Wind Speed Gust Speed Precip Events Conditions
12:51 AM 46.9 °F - 30.9 °F 54% 29.71 in 10.0 mi WSW 15.0 mph 23.0 mph N/A   Scattered Clouds
1:51 AM 44.1 °F 39.5 °F 30.9 °F 60% 29.72 in 10.0 mi SW 8.1 mph - N/A   Mostly Cloudy
2:51 AM 45.0 °F 40.6 °F 30.9 °F 58% 29.71 in 10.0 mi WSW 8.1 mph - N/A   Overcast
3:51 AM 43.0 °F 39.5 °F 30.9 °F 62% 29.71 in 10.0 mi SW 5.8 mph - N/A   Overcast
4:51 AM 43.0 °F 37.7 °F 30.9 °F 62% 29.72 in 10.0 mi SW 9.2 mph - N/A   Overcast
5:51 AM 43.0 °F 38.8 °F 30.9 °F 62% 29.73 in 10.0 mi SW 6.9 mph - N/A   Mostly Cloudy
6:51 AM 42.1 °F 38.4 °F 30.9 °F 65% 29.73 in 10.0 mi SW 5.8 mph - N/A   Mostly Cloudy
7:51 AM 42.1 °F 35.2 °F 30.9 °F 65% 29.73 in 10.0 mi WSW 12.7 mph - N/A   Mostly Cloudy
8:51 AM 43.0 °F 36.4 °F 30.9 °F 62% 29.75 in 10.0 mi SW 12.7 mph - N/A   Mostly Cloudy
9:51 AM 46.4 °F 41.5 °F 32.0 °F 57% 29.73 in 10.0 mi SW 10.4 mph - N/A   Mostly Cloudy
10:51 AM 48.9 °F - 33.1 °F 54% 29.73 in 10.0 mi WSW 10.4 mph - N/A   Mostly Cloudy
11:51 AM 50.0 °F - 33.1 °F 52% 29.71 in 10.0 mi WSW 11.5 mph - N/A   Mostly Cloudy
12:51 PM 52.0 °F - 34.0 °F 50% 29.68 in 10.0 mi WSW 5.8 mph - N/A   Mostly Cloudy
1:51 PM 54.0 °F - 34.0 °F 47% 29.68 in 10.0 mi SW 5.8 mph - N/A   Mostly Cloudy
2:51 PM 54.0 °F - 34.0 °F 47% 29.68 in 10.0 mi SW 9.2 mph - N/A   Mostly Cloudy
3:51 PM 52.0 °F - 34.0 °F 50% 29.71 in 10.0 mi WSW 9.2 mph - N/A   Mostly Cloudy
4:51 PM 50.0 °F - 34.0 °F 54% 29.73 in 10.0 mi WSW 5.8 mph - N/A   Mostly Cloudy
5:51 PM 50.0 °F - 35.1 °F 57% 29.73 in 10.0 mi SW 3.5 mph - N/A   Mostly Cloudy
6:51 PM 46.9 °F - 35.1 °F 63% 29.75 in 10.0 mi WSW 4.6 mph - N/A   Overcast
7:51 PM 46.9 °F - 35.1 °F 63% 29.75 in 10.0 mi West 5.8 mph - N/A   Overcast
8:51 PM 46.0 °F 43.1 °F 35.1 °F 66% 29.76 in 10.0 mi WNW 5.8 mph - N/A   Overcast
9:51 PM 46.0 °F 40.6 °F 32.0 °F 58% 29.76 in 10.0 mi WNW 11.5 mph - N/A   Overcast
10:51 PM 46.0 °F 41.0 °F 28.0 °F 50% 29.78 in 10.0 mi WNW 10.4 mph - N/A   Overcast
11:51 PM 45.0 °F 37.4 °F 27.0 °F 49% 29.79 in 10.0 mi NW 18.4 mph 24.2 mph N/A   Overcast